Weather History for Sierra Vista, AZ

Change the Weather History Date:

Friday, October 15, 2010

  Actual Average Record
Temperature  
Mean Temperature 68 °F -  
Max Temperature 78 °F 77 °F 89 °F (1991)
Min Temperature 57 °F 55 °F 45 °F (1985)
Cooling Degree Days 2    
Growing Degree Days 18 (Base 50)    
Moisture  
Dew Point 50 °F    
Average Humidity 60    
Maximum Humidity 82    
Minimum Humidity 30    
Precipitation  
Precipitation 0.11 in - - ()
Sea Level Pressure  
Sea Level Pressure 30.06 in    
Wind  
Wind Speed 8 mph (SSW)    
Max Wind Speed 34 mph    
Max Gust Speed 45 mph    
Visibility 14 miles    
Events Rain , Thunderstorm    
Averages and records for this station are not official NWS values.
T = Trace of Precipitation, MM = Missing Value Source: NWS Daily Summary

Daily Weather History Graph

Daily Weather History Graph

Search for Another Location

Airport:

Trip Planner

Search our weather history database for the weather conditions in past years. The results will help you decide how hot, cold, wet, or windy it might be!

Date:

Astronomy

Oct. 15, 2010 Rise Set
Actual Time 6:24 AM MST 5:49 PM MST
Civil Twilight 6:00 AM MST 6:13 PM MST
Nautical Twilight 5:31 AM MST 6:41 PM MST
Astronomical Twilight 5:03 AM MST 7:10 PM MST
Moon 1:48 PM MST (10/15) No Moon Set
Length of Visible Light 12h 13m
Length of Day
11h 24m
First Quarter, 59% of the Moon is Illuminated
Oct 15
First Quarter
Oct 22
Full
Oct 30
Last Quarter
Nov 5
New
Nov 13
First Quarter

Hourly Weather History & Observations

Time (MST) Temp. Dew Point Humidity Pressure Visibility Wind Dir Wind Speed Gust Speed Precip Events Conditions
12:56 AM 64.9 °F 48.9 °F 56% 30.06 in 10.0 mi ENE 9.2 mph - N/A   Clear
1:56 AM 61.0 °F 50.0 °F 67% 30.06 in 10.0 mi ENE 5.8 mph - N/A   Partly Cloudy
2:56 AM 60.1 °F 50.0 °F 69% 30.04 in 10.0 mi South 3.5 mph - N/A   Clear
3:56 AM 61.0 °F 51.1 °F 70% 30.03 in 10.0 mi Calm Calm - N/A   Clear
4:56 AM 62.1 °F 51.1 °F 67% 30.04 in 10.0 mi Calm Calm - N/A   Clear
5:55 AM 62.6 °F 51.8 °F 68% 30.05 in 10.0 mi South 2.3 mph - N/A   Mostly Cloudy
6:55 AM 62.6 °F 51.8 °F 68% 30.07 in 50.0 mi SSW 4.6 mph - N/A   Mostly Cloudy
7:55 AM 64.4 °F 51.8 °F 64% 30.08 in 50.0 mi Variable 3.5 mph - N/A   Mostly Cloudy
8:55 AM 66.2 °F 51.8 °F 60% 30.08 in 50.0 mi Variable 1.2 mph - N/A   Mostly Cloudy
9:55 AM 73.4 °F 50.0 °F 44% 30.06 in 50.0 mi Variable 6.9 mph - N/A   Mostly Cloudy
10:55 AM 75.2 °F 50.0 °F 41% 30.05 in 50.0 mi Variable 5.8 mph - N/A   Scattered Clouds
11:55 AM 77.0 °F 48.2 °F 36% 30.01 in 50.0 mi Variable 5.8 mph - N/A   Scattered Clouds
12:55 PM 77.0 °F 46.4 °F 34% 29.97 in 50.0 mi Variable 2.3 mph - N/A   Scattered Clouds
1:55 PM 77.0 °F 46.4 °F 34% 29.94 in 50.0 mi Variable 1.2 mph - N/A   Mostly Cloudy
2:36 PM 78.8 °F 44.6 °F 30% 30.11 in 50.0 mi SW 9.2 mph - N/A Thunderstorm Thunderstorm
2:55 PM 69.8 °F 46.4 °F 43% 29.96 in 50.0 mi SW 34.5 mph 44.9 mph N/A   Mostly Cloudy
3:00 PM 60.8 °F 51.8 °F 72% 30.13 in 20.0 mi SW 34.5 mph 44.9 mph N/A Rain , Thunderstorm Light Thunderstorms and Rain
3:33 PM 60.8 °F 51.8 °F 72% 30.15 in 20.0 mi WNW 21.9 mph 26.5 mph N/A Thunderstorm Overcast
3:55 PM 60.8 °F 51.8 °F 72% 30.16 in 20.0 mi West 17.3 mph 36.8 mph N/A Thunderstorm Overcast
4:23 PM 64.4 °F 48.2 °F 56% 30.16 in 20.0 mi West 16.1 mph 29.9 mph N/A Rain Light Rain Showers
4:56 PM 62.6 °F 48.2 °F 59% 30.00 in 20.0 mi Variable 4.6 mph - N/A Rain Light Rain Showers
5:15 PM 64.4 °F 51.8 °F 64% 30.17 in 20.0 mi SSW 8.1 mph - N/A   Overcast
5:55 PM 66.2 °F 46.4 °F 49% 30.04 in 20.0 mi SSE 16.1 mph - N/A Rain Light Rain Showers
6:55 PM 62.6 °F 50.0 °F 63% 30.03 in 10.0 mi NNE 12.7 mph 17.3 mph N/A   Overcast
7:55 PM 60.8 °F 50.0 °F 68% 30.08 in 10.0 mi Variable 5.8 mph - N/A   Mostly Cloudy
8:55 PM 60.8 °F 50.0 °F 68% 30.07 in 10.0 mi SSE 4.6 mph - N/A   Mostly Cloudy
9:55 PM 57.2 °F 51.8 °F 82% 30.06 in 10.0 mi SSE 9.2 mph - N/A   Mostly Cloudy
10:55 PM 57.2 °F 51.8 °F 82% 30.05 in 10.0 mi South 4.6 mph - N/A   Mostly Cloudy
11:56 PM 60.1 °F 51.1 °F 72% 30.02 in 10.0 mi South 10.4 mph - N/A   Clear